CZ-6A DEB, 55537

Orbit data source: Space-Track

CZ-6A DEB, 55537 is space debris in SSO originally from a launch on Fri, 11 Nov 2022 UTC launched from the Taiyaun Space Center, China (TSC). Debris objects in space refer to the collection of defunct objects orbiting the Earth. Examples of debris include non-operational satellites, rocket bodies, and fragments generated from explosions, collisions, or faulty payload assembly.

Loading next visibility...
Identifier
55537, 2022-151YK
Orbit
SSO
Country
Flag of CNCN / PRC
Related business
Manufacturer
SAST
Mission
Spacecraft
Bus & Motor
Unknown
Mass
Unknown
Launch date (UTC)
2022-11-11 (4 years ago)
Launch vehicle
Unknown
Launch site
Taiyaun Space Center, China (TSC)
Object type
Payload
Rocket body
Debris
Shape & HBR
Unknown shape, 0.1 m
Radar Cross Section
Medium (>0.1 m² and <1 m²)

Expand to show TLE details & history
Last TLE update: 20 hours ago

TLE from 20 hours ago
0 CZ-6A DEB
1 55537U 22151YK  26263.17185212  .00006585  00000-0  97007-3 0  9992
2 55537  98.6199 334.3145 0063313 348.2810  11.6919 14.74368011198802
Epoch: 2026-09-20T04:07Z
TLE epoch observation values (Epoch: 2026-09-20T04:07:28.023Z)
Latitude
-0.00004°
Longitude
-86.62211°
Altitude
606.596 km
Speed
7.579 km/s
True Right ascension
22h 17m 15s
True Declination
0° 00' 00"
Sunlit
Object was in full shadow at epoch
Visualization orbit readout
Latitude
Unknown
Longitude
Unknown
Altitude
Unknown
Speed
Unknown
Apparent Right ascension
Unknown
Apparent Declination
Unknown
Sunlit
N/A
Visualization observer readout
Local Sidereal Time
17:10:26
Azimuth
Unknown
Elevation
Unknown
Doppler factor
Unknown
Orbital elements
Apogee altitude
688.701 km
Perigee altitude
599.779 km
Semi-major axis
7,022.377 km
Eccentricity
0.00633
Inclination
98.6199°
RAAN
334.3145°
Arg. of periapsis
348.281°
True anomaly
11.84007°
Mean anomaly
11.6919°
Eccentric anomaly
11.76587°
Mean motion
3.68822 °/min
Orbital period
97.61 mins
BSTAR
0.00097007
Loading maneuver chart data...
Computing Atmospheric mass density...

Documentation

Showing up to 5 results
|